This demonstration page uses our WeatherBlox Daily Observations layout. Learn more.

Left ArrowRight Arrow

Hourly Observations for December 3, 2021

Temp ( °F °C ) Dew Point ( °F °C ) Humidity (%) Winds ( mph kmh ) Pressure ( in mb ) Visibility ( mi km ) Precip ( " mm )
12:59 am 00:59 Mostly Clear 60 15.6 42 5.6 52 52 WSW 10 17 29.83 1010 10 16 0.00 0.00
1:59 am 01:59 Mostly Clear 60 15.6 42 5.6 52 52 WSW 8 13 29.85 1011 10 16 0.00 0.00
2:59 am 02:59 Mostly Clear 56 13.3 42 5.6 60 60 W 8 13 29.87 1012 10 16 0.00 0.00
3:59 am 03:59 Mostly Clear 57 13.9 43 6.1 60 60 W 6 9 29.88 1012 10 16 0.00 0.00
4:59 am 04:59 Mostly Clear 54 12.2 43 6.1 67 67 N 7 11 29.92 1013 10 16 0.00 0.00
5:59 am 05:59 Mostly Clear 49 9.4 42 5.6 77 77 SW 5 7 29.95 1014 10 16 0.00 0.00
6:59 am 06:59 Mostly Cloudy 53 11.7 40 4.4 61 61 NNE 10 17 30.00 1016 10 16 0.00 0.00
7:59 am 07:59 Mostly Cloudy 53 11.7 40 4.4 61 61 NE 10 17 30.03 1017 10 16 0.00 0.00
8:59 am 08:59 Sunny 54 12.2 40 4.4 59 59 NNE 10 17 30.06 1018 10 16 0.00 0.00
9:59 am 09:59 Partly Cloudy 56 13.3 37 2.8 49 49 NE 10 17 30.06 1018 10 16 0.00 0.00
10:59 am 10:59 Partly Cloudy 57 13.9 33 0.6 41 41 NNE 10 17 30.07 1018 10 16 0.00 0.00
11:59 am 11:59 Partly Cloudy 57 13.9 34 1.1 42 42 NE 7 11 30.04 1017 10 16 0.00 0.00
12:59 pm 12:59 Partly Cloudy 57 13.9 34 1.1 42 42 ENE 5 7 30.04 1017 10 16 0.00 0.00
1:59 pm 13:59 Mostly Sunny 60 15.6 35 1.7 39 39 Calm 30.02 1017 10 16 0.00 0.00
2:59 pm 14:59 Mostly Sunny 58 14.4 36 2.2 44 44 ENE 3 6 30.03 1017 10 16 0.00 0.00
3:59 pm 15:59 Sunny 55 12.8 36 2.2 49 49 ENE 7 11 30.05 1018 10 16 0.00 0.00
4:59 pm 16:59 Mostly Clear 52 11.1 34 1.1 50 50 ESE 8 13 30.07 1018 10 16 0.00 0.00
5:59 pm 17:59 Clear 51 10.6 34 1.1 52 52 ESE 6 9 30.08 1019 10 16 0.00 0.00
6:59 pm 18:59 Clear 50 10 36 2.2 59 59 SSE 6 9 30.09 1019 10 16 0.00 0.00
7:59 pm 19:59 Clear 49 9.4 39 3.9 69 69 ESE 6 9 30.08 1019 10 16 0.00 0.00
8:59 pm 20:59 Clear 48 8.9 39 3.9 71 71 E 5 7 30.09 1019 10 16 0.00 0.00
9:59 pm 21:59 Clear 48 8.9 40 4.4 74 74 ESE 3 6 30.11 1020 10 16 0.00 0.00
10:59 pm 22:59 Clear 48 8.9 40 4.4 74 74 ESE 3 6 30.11 1020 10 16 0.00 0.00
11:59 pm 23:59 Clear 48 8.9 41 5 77 77 ESE 6 9 30.09 1019 10 16 0.00 0.00

Powered by AerisWeather